BEIDOU-3 IGSO-3

Last updated on Mon Sep 21 2026 00:03:01 GMT+0000 (Coordinated Universal Time)

1 44709U 19073A 26263.44917558 -.00000139 00000+0 00000+0 0 9998 2 44709 54.6414 279.8585 0046787 198.1954 161.6861 1.00261208 25414
UTC large
Height (km)
Speed (km/s)
/
Latitude / Longitude
Inclination (degrees)
Orbital Period (minutes)
Azimuth
Elevation
Range (km)
Doppler Factor

Next 0 passes for location: London (51.5072 / 0.1276)

No passes found over London.
BEIDOU-3 IGSO-3